Time,TemperatureF,DewpointF,PressureIn,WindDirection,WindDirectionDegrees,WindSpeedMPH,WindSpeedGustMPH,Humidity,HourlyPrecipIn,Conditions,Clouds,dailyrainin,SoftwareType,DateUTC
2013-02-21 00:12:00,26.0,7.0,-100.00,WSW,245,8.0,16.0,43,-99.99,,,-99.99,,2013-02-21 05:12:00,
2013-02-21 00:22:00,26.0,7.0,-100.00,WSW,245,8.0,16.0,43,-99.99,,,-99.99,,2013-02-21 05:22:00,
2013-02-21 00:36:00,26.0,8.0,-100.00,NW,315,3.0,8.0,45,-99.99,,,-99.99,,2013-02-21 05:36:00,
2013-02-21 00:46:00,26.0,8.0,-100.00,WNW,295,6.0,12.0,45,-99.99,,,-99.99,,2013-02-21 05:46:00,
2013-02-21 00:54:00,26.0,8.0,-100.00,WNW,295,6.0,12.0,45,-99.99,,,-99.99,,2013-02-21 05:54:00,
2013-02-21 01:01:00,26.0,8.0,-100.00,WNW,295,5.0,15.0,45,-99.99,,,-99.99,,2013-02-21 06:01:00,
2013-02-21 01:11:00,26.0,8.0,-100.00,NW,305,6.0,10.0,46,-99.99,,,-99.99,,2013-02-21 06:11:00,
2013-02-21 01:21:00,26.0,8.0,-100.00,WNW,290,3.0,15.0,47,-99.99,,,-99.99,,2013-02-21 06:21:00,
2013-02-21 01:31:00,26.0,8.0,-100.00,WNW,290,2.0,14.0,47,-99.99,,,-99.99,,2013-02-21 06:31:00,
2013-02-21 01:41:00,26.0,8.0,-100.00,WNW,285,3.0,12.0,46,-99.99,,,-99.99,,2013-02-21 06:41:00,
2013-02-21 01:51:00,26.0,8.0,-100.00,WNW,285,3.0,8.0,47,-99.99,,,-99.99,,2013-02-21 06:51:00,
2013-02-21 02:01:00,26.0,8.0,-100.00,WNW,285,2.0,8.0,47,-99.99,,,-99.99,,2013-02-21 07:01:00,
2013-02-21 02:11:00,26.0,8.0,-100.00,WNW,290,3.0,8.0,47,-99.99,,,-99.99,,2013-02-21 07:11:00,
2013-02-21 02:21:00,25.0,8.0,-100.00,WNW,300,3.0,7.0,47,-99.99,,,-99.99,,2013-02-21 07:21:00,
2013-02-21 02:32:00,25.0,8.0,-100.00,WNW,295,5.0,7.0,47,-99.99,,,-99.99,,2013-02-21 07:32:00,
2013-02-21 02:42:00,26.0,8.0,-100.00,WNW,300,3.0,10.0,46,-99.99,,,-99.99,,2013-02-21 07:42:00,
2013-02-21 02:52:00,26.0,8.0,-100.00,WNW,300,3.0,10.0,46,-99.99,,,-99.99,,2013-02-21 07:52:00,
2013-02-21 03:02:00,26.0,8.0,-100.00,West,280,3.0,13.0,47,-99.99,,,-99.99,,2013-02-21 08:02:00,
2013-02-21 03:11:00,26.0,7.0,-100.00,West,260,2.0,12.0,45,-99.99,,,-99.99,,2013-02-21 08:11:00,
2013-02-21 03:21:00,26.0,7.0,-100.00,West,260,2.0,12.0,45,-99.99,,,-99.99,,2013-02-21 08:21:00,
2013-02-21 03:32:00,26.0,7.0,-100.00,NW,305,5.0,13.0,44,-99.99,,,-99.99,,2013-02-21 08:32:00,
2013-02-21 03:42:00,26.0,6.0,-100.00,NW,325,6.0,13.0,42,-99.99,,,-99.99,,2013-02-21 08:42:00,
2013-02-21 03:52:00,26.0,6.0,-100.00,WNW,285,6.0,14.0,42,-99.99,,,-99.99,,2013-02-21 08:52:00,
2013-02-21 04:02:00,26.0,6.0,-100.00,West,280,5.0,10.0,42,-99.99,,,-99.99,,2013-02-21 09:02:00,
2013-02-21 04:10:00,25.0,6.0,-100.00,West,270,5.0,13.0,44,-99.99,,,-99.99,,2013-02-21 09:10:00,
2013-02-21 04:11:00,25.0,6.0,-100.00,West,275,5.0,10.0,43,-99.99,,,-99.99,,2013-02-21 09:11:00,
2013-02-21 04:22:00,25.0,6.0,-100.00,WNW,295,5.0,13.0,44,-99.99,,,-99.99,,2013-02-21 09:22:00,
2013-02-21 04:32:00,25.0,6.0,-100.00,WNW,285,3.0,9.0,44,-99.99,,,-99.99,,2013-02-21 09:32:00,
2013-02-21 04:42:00,25.0,6.0,-100.00,WNW,295,3.0,8.0,44,-99.99,,,-99.99,,2013-02-21 09:42:00,
2013-02-21 04:52:00,25.0,6.0,-100.00,West,270,5.0,13.0,44,-99.99,,,-99.99,,2013-02-21 09:52:00,
2013-02-21 05:01:00,25.0,6.0,-100.00,West,270,5.0,13.0,44,-99.99,,,-99.99,,2013-02-21 10:01:00,
2013-02-21 05:41:00,24.0,6.0,-100.00,WNW,285,5.0,13.0,45,-99.99,,,-99.99,,2013-02-21 10:41:00,
2013-02-21 05:51:00,24.0,6.0,-100.00,WNW,285,5.0,13.0,45,-99.99,,,-99.99,,2013-02-21 10:51:00,
2013-02-21 06:01:00,24.0,6.0,-100.00,WSW,245,3.0,9.0,45,-99.99,,,-99.99,,2013-02-21 11:01:00,
2013-02-21 06:11:00,24.0,6.0,-100.00,WNW,300,5.0,12.0,45,-99.99,,,-99.99,,2013-02-21 11:11:00,
2013-02-21 06:21:00,24.0,6.0,-100.00,West,275,5.0,16.0,44,-99.99,,,-99.99,,2013-02-21 11:21:00,
2013-02-21 06:31:00,24.0,5.0,-100.00,NW,305,5.0,13.0,43,-99.99,,,-99.99,,2013-02-21 11:31:00,
2013-02-21 06:41:00,24.0,5.0,-100.00,WNW,290,3.0,13.0,43,-99.99,,,-99.99,,2013-02-21 11:41:00,
2013-02-21 06:51:00,24.0,5.0,-100.00,WNW,300,7.0,10.0,44,-99.99,,,-99.99,,2013-02-21 11:51:00,
2013-02-21 07:01:00,24.0,5.0,-100.00,WNW,300,6.0,13.0,43,-99.99,,,-99.99,,2013-02-21 12:01:00,
2013-02-21 07:11:00,24.0,5.0,-100.00,WNW,295,6.0,10.0,43,-99.99,,,-99.99,,2013-02-21 12:11:00,
2013-02-21 07:22:00,24.0,5.0,-100.00,WNW,290,6.0,10.0,43,-99.99,,,-99.99,,2013-02-21 12:22:00,
2013-02-21 07:32:00,24.0,4.0,-100.00,NNW,345,6.0,10.0,42,-99.99,,,-99.99,,2013-02-21 12:32:00,
2013-02-21 07:43:00,24.0,4.0,-100.00,NW,310,5.0,13.0,42,-99.99,,,-99.99,,2013-02-21 12:43:00,
2013-02-21 07:52:00,24.0,4.0,-100.00,WNW,300,5.0,13.0,42,-99.99,,,-99.99,,2013-02-21 12:52:00,
2013-02-21 08:02:00,24.0,3.0,-100.00,WNW,300,6.0,12.0,40,-99.99,,,-99.99,,2013-02-21 13:02:00,
2013-02-21 08:12:00,25.0,2.0,-100.00,WNW,295,6.0,15.0,37,-99.99,,,-99.99,,2013-02-21 13:12:00,
2013-02-21 08:22:00,25.0,3.0,-100.00,NW,310,5.0,10.0,38,-99.99,,,-99.99,,2013-02-21 13:22:00,
2013-02-21 08:32:00,25.0,3.0,-100.00,NW,310,5.0,10.0,38,-99.99,,,-99.99,,2013-02-21 13:32:00,
2013-02-21 08:42:00,25.0,2.0,-100.00,NW,315,8.0,18.0,36,-99.99,,,-99.99,,2013-02-21 13:42:00,
2013-02-21 08:52:00,25.0,1.0,-100.00,NW,315,7.0,15.0,35,-99.99,,,-99.99,,2013-02-21 13:52:00,
2013-02-21 09:02:00,25.0,0.0,-100.00,NW,310,8.0,17.0,33,-99.99,,,-99.99,,2013-02-21 14:02:00,
2013-02-21 09:11:00,25.0,1.0,-100.00,WNW,300,5.0,17.0,34,-99.99,,,-99.99,,2013-02-21 14:11:00,
2013-02-21 09:22:00,25.0,-1.0,-100.00,NW,325,9.0,18.0,32,-99.99,,,-99.99,,2013-02-21 14:22:00,
2013-02-21 09:32:00,25.0,-1.0,-100.00,NNW,335,8.0,13.0,31,-99.99,,,-99.99,,2013-02-21 14:32:00,
2013-02-21 09:42:00,26.0,-1.0,-100.00,NW,305,8.0,21.0,30,-99.99,,,-99.99,,2013-02-21 14:42:00,
2013-02-21 09:52:00,26.0,-2.0,-100.00,North,350,15.0,24.0,30,-99.99,,,-99.99,,2013-02-21 14:52:00,
2013-02-21 10:02:00,26.0,-1.0,-100.00,NNW,330,13.0,22.0,30,-99.99,,,-99.99,,2013-02-21 15:02:00,
2013-02-21 10:12:00,26.0,-1.0,-100.00,NNW,335,8.0,24.0,29,-99.99,,,-99.99,,2013-02-21 15:12:00,
2013-02-21 10:22:00,27.0,-1.0,-100.00,WNW,290,8.0,20.0,29,-99.99,,,-99.99,,2013-02-21 15:22:00,
2013-02-21 10:32:00,28.0,-1.0,-100.00,WNW,295,5.0,13.0,27,-99.99,,,-99.99,,2013-02-21 15:32:00,
2013-02-21 10:42:00,27.0,-2.0,-100.00,NNW,340,9.0,21.0,27,-99.99,,,-99.99,,2013-02-21 15:42:00,
2013-02-21 10:52:00,29.0,-2.0,-100.00,NNW,330,5.0,15.0,26,-99.99,,,-99.99,,2013-02-21 15:52:00,
2013-02-21 11:02:00,29.0,-2.0,-100.00,NNW,330,5.0,15.0,26,-99.99,,,-99.99,,2013-02-21 16:02:00,
2013-02-21 13:12:00,29.0,-1.0,-100.00,North,350,14.0,23.0,26,-99.99,,,-99.99,,2013-02-21 18:12:00,
2013-02-21 13:22:00,29.0,-1.0,-100.00,NNW,335,16.0,25.0,26,-99.99,,,-99.99,,2013-02-21 18:22:00,
2013-02-21 13:32:00,29.0,-1.0,-100.00,NNW,335,16.0,25.0,26,-99.99,,,-99.99,,2013-02-21 18:32:00,
2013-02-21 13:42:00,30.0,-2.0,-100.00,North,5,9.0,27.0,24,-99.99,,,-99.99,,2013-02-21 18:42:00,
2013-02-21 13:52:00,31.0,-1.0,-100.00,NNW,335,9.0,28.0,25,-99.99,,,-99.99,,2013-02-21 18:52:00,
2013-02-21 14:02:00,31.0,-1.0,-100.00,NNW,335,15.0,30.0,25,-99.99,,,-99.99,,2013-02-21 19:02:00,
2013-02-21 14:12:00,30.0,-1.0,-100.00,NNW,345,16.0,24.0,25,-99.99,,,-99.99,,2013-02-21 19:12:00,
2013-02-21 14:21:00,30.0,-1.0,-100.00,NNW,335,10.0,24.0,26,-99.99,,,-99.99,,2013-02-21 19:21:00,
2013-02-21 14:32:00,30.0,-1.0,-100.00,NNW,335,15.0,24.0,25,-99.99,,,-99.99,,2013-02-21 19:32:00,
2013-02-21 14:42:00,31.0,-1.0,-100.00,NNW,330,9.0,27.0,25,-99.99,,,-99.99,,2013-02-21 19:42:00,
2013-02-21 14:52:00,31.0,-1.0,-100.00,NNW,335,13.0,27.0,25,-99.99,,,-99.99,,2013-02-21 19:52:00,
2013-02-21 15:01:00,31.0,-1.0,-100.00,NNW,335,14.0,24.0,25,-99.99,,,-99.99,,2013-02-21 20:01:00,
2013-02-21 15:11:00,30.0,0.0,-100.00,NNW,340,17.0,28.0,26,-99.99,,,-99.99,,2013-02-21 20:11:00,
2013-02-21 15:21:00,31.0,-1.0,-100.00,NNW,340,12.0,27.0,24,-99.99,,,-99.99,,2013-02-21 20:21:00,
2013-02-21 15:32:00,31.0,0.0,-100.00,NNW,335,15.0,27.0,25,-99.99,,,-99.99,,2013-02-21 20:32:00,
2013-02-21 15:42:00,32.0,0.0,-100.00,NNW,335,10.0,21.0,24,-99.99,,,-99.99,,2013-02-21 20:42:00,
2013-02-21 15:52:00,31.0,1.0,-100.00,NNW,340,14.0,25.0,26,-99.99,,,-99.99,,2013-02-21 20:52:00,
2013-02-21 16:02:00,31.0,0.0,-100.00,NNW,340,16.0,25.0,26,-99.99,,,-99.99,,2013-02-21 21:02:00,
2013-02-21 16:12:00,31.0,0.0,-100.00,NNW,340,12.0,21.0,26,-99.99,,,-99.99,,2013-02-21 21:12:00,
2013-02-21 16:22:00,31.0,1.0,-100.00,NW,325,12.0,25.0,27,-99.99,,,-99.99,,2013-02-21 21:22:00,
2013-02-21 16:32:00,31.0,2.0,-100.00,North,350,8.0,27.0,28,-99.99,,,-99.99,,2013-02-21 21:32:00,
2013-02-21 16:42:00,31.0,1.0,-100.00,NNW,335,15.0,25.0,27,-99.99,,,-99.99,,2013-02-21 21:42:00,
2013-02-21 16:52:00,31.0,1.0,-100.00,NW,320,10.0,24.0,27,-99.99,,,-99.99,,2013-02-21 21:52:00,
2013-02-21 17:01:00,31.0,1.0,-100.00,NW,320,10.0,24.0,27,-99.99,,,-99.99,,2013-02-21 22:01:00,
2013-02-21 18:42:00,28.0,4.0,-100.00,NNW,340,13.0,23.0,35,-99.99,,,-99.99,,2013-02-21 23:42:00,
2013-02-21 18:53:00,27.0,3.0,-100.00,NNW,340,10.0,28.0,35,-99.99,,,-99.99,,2013-02-21 23:53:00,
2013-02-21 19:02:00,27.0,3.0,-100.00,NNW,345,14.0,28.0,35,-99.99,,,-99.99,,2013-02-22 00:02:00,
2013-02-21 19:11:00,27.0,4.0,-100.00,NNW,345,10.0,25.0,36,-99.99,,,-99.99,,2013-02-22 00:11:00,
2013-02-21 19:22:00,26.0,4.0,-100.00,NNW,340,10.0,20.0,38,-99.99,,,-99.99,,2013-02-22 00:22:00,
2013-02-21 19:42:00,26.0,4.0,-100.00,NNW,340,9.0,23.0,38,-99.99,,,-99.99,,2013-02-22 00:42:00,
2013-02-21 19:52:00,26.0,4.0,-100.00,NNW,335,12.0,23.0,38,-99.99,,,-99.99,,2013-02-22 00:52:00,
2013-02-21 20:01:00,26.0,5.0,-100.00,NNW,330,13.0,25.0,39,-99.99,,,-99.99,,2013-02-22 01:01:00,
2013-02-21 20:11:00,26.0,5.0,-100.00,NNW,345,13.0,21.0,40,-99.99,,,-99.99,,2013-02-22 01:11:00,
2013-02-21 20:22:00,26.0,5.0,-100.00,NNW,330,13.0,24.0,41,-99.99,,,-99.99,,2013-02-22 01:22:00,
2013-02-21 20:32:00,26.0,5.0,-100.00,NNW,330,13.0,24.0,41,-99.99,,,-99.99,,2013-02-22 01:32:00,
2013-02-21 20:42:00,26.0,6.0,-100.00,NNW,340,6.0,22.0,43,-99.99,,,-99.99,,2013-02-22 01:42:00,
2013-02-21 20:52:00,25.0,7.0,-100.00,NNW,330,7.0,20.0,44,-99.99,,,-99.99,,2013-02-22 01:52:00,
2013-02-21 21:42:00,25.0,8.0,-100.00,NNW,340,9.0,18.0,47,-99.99,,,-99.99,,2013-02-22 02:42:00,
2013-02-21 21:52:00,25.0,8.0,-100.00,NNW,335,13.0,18.0,47,-99.99,,,-99.99,,2013-02-22 02:52:00,
2013-02-21 22:22:00,25.0,9.0,-100.00,NNW,335,7.0,18.0,49,-99.99,,,-99.99,,2013-02-22 03:22:00,
2013-02-21 22:30:00,25.0,9.0,-100.00,NNW,345,3.0,14.0,51,-99.99,,,-99.99,,2013-02-22 03:30:00,
2013-02-21 22:32:00,25.0,9.0,-100.00,NNE,20,5.0,10.0,50,-99.99,,,-99.99,,2013-02-22 03:32:00,
2013-02-21 22:42:00,25.0,9.0,-100.00,NNW,335,8.0,13.0,49,-99.99,,,-99.99,,2013-02-22 03:42:00,
2013-02-21 22:52:00,25.0,9.0,-100.00,NNW,340,3.0,13.0,50,-99.99,,,-99.99,,2013-02-22 03:52:00,
2013-02-21 23:02:00,25.0,9.0,-100.00,NNW,340,3.0,13.0,50,-99.99,,,-99.99,,2013-02-22 04:02:00,
2013-02-21 23:11:00,25.0,9.0,-100.00,NNW,345,3.0,14.0,51,-99.99,,,-99.99,,2013-02-22 04:11:00,
2013-02-21 23:21:00,25.0,9.0,-100.00,NNW,345,3.0,14.0,51,-99.99,,,-99.99,,2013-02-22 04:21:00,